"2016-03-19 00:00:00",1470171,0.486,198,29.95,1.134,-2.672,98.23991,-5.184,-4.009,63.64,0,109.7,13.28,-4.45,160.0
"2016-03-19 00:00:30",1470172,-0.273,242.7,23.72,0.053,-4.625,98.24046,-5.182,-4.06,63.07,0,109.7,13.32,-4.45,204.7
"2016-03-19 00:01:00",1470173,-0.205,265.4,8.55,0.045,-4.113,98.23757,-5.19,-4.062,62.43,0,109.7,13.32,-4.46,227.4
"2016-03-19 00:01:30",1470174,-0.022,292.2,13.33,0.137,-4.783,98.24206,-5.178,-4.072,62.11,0,109.7,13.32,-4.44,254.2
"2016-03-19 00:02:00",1470175,-0.09,305,3.806,0.047,-5.484,98.25274,-5.151,-4.065,62.18,0,109.7,13.32,-4.42,267.0
"2016-03-19 00:02:30",1470176,0.412,295,13.98,1.091,-3.69,98.25358,-5.149,-4.028,62.71,0,109.7,13.27,-4.41,257.0
"2016-03-19 00:03:00",1470177,0.962,287.8,7.274,1.301,-1.917,98.25358,-5.149,-3.93,63.21,0,109.7,13.27,-4.41,249.8
"2016-03-19 00:03:30",1470178,1.642,271.7,29.08,1.323,-0.258,98.25867,-5.136,-3.814,63.6,0,109.7,13.27,-4.40,233.7
"2016-03-19 00:04:00",1470179,1.079,281.7,58.66,1.36,-0.595,98.26632,-5.116,-3.814,63.39,0,109.7,13.27,-4.38,243.7
"2016-03-19 00:04:30",1470180,0,259.3,5.414,0.482,-4.119,98.27983,-5.082,-3.934,63.24,0,109.7,13.27,-4.35,221.3
"2016-03-19 00:05:00",1470181,0.013,259.5,3.44,0.022,-4.933,98.29054,-5.055,-3.991,63.58,0,109.7,13.32,-4.32,221.5
"2016-03-19 00:05:30",1470182,0.16,260.1,2.977,0.097,-5.025,98.29362,-5.047,-3.973,63.87,0,109.7,13.32,-4.31,222.1
"2016-03-19 00:06:00",1470183,0.369,261.7,2.253,0.06,-4.574,98.29643,-5.04,-3.954,63.99,0,109.7,13.32,-4.31,223.7
"2016-03-19 00:06:30",1470184,0.368,272.1,5.292,0.039,-4.209,98.30576,-5.016,-3.94,63.93,0,109.7,13.33,-4.28,234.1
"2016-03-19 00:07:00",1470185,2.175,286.2,7.68,1.266,-0.111,98.3083,-5.01,-3.664,64.12,0,109.7,13.29,-4.28,248.2
"2016-03-19 00:07:30",1470186,2.286,284.1,6.867,1.283,0.277,98.31252,-4.999,-3.62,64.05,0,109.7,13.29,-4.26,246.1
"2016-03-19 00:08:00",1470187,2.682,284.2,6.04,1.222,0.572,98.31676,-4.988,-3.606,63.98,0,109.7,13.29,-4.25,246.2
"2016-03-19 00:08:30",1470188,1.441,276.1,5.39,1.093,-2.502,98.32546,-4.966,-3.848,63.63,0,109.7,13.29,-4.23,238.1
"2016-03-19 00:09:00",1470189,1.128,270.3,1.41,0.062,-4.213,98.32853,-4.958,-3.878,63.46,0,109.7,13.33,-4.22,232.3
"2016-03-19 00:09:30",1470190,1.23,266.2,1.237,0.044,-4.19,98.32881,-4.957,-3.876,63.28,0,109.7,13.33,-4.22,228.2
"2016-03-19 00:10:00",1470191,2.194,272,6.711,1.295,-1.733,98.32597,-4.964,-3.706,63.25,0,109.7,13.29,-4.23,234.0
"2016-03-19 00:10:30",1470192,3.087,276.7,6.989,1.291,0.12,98.32146,-4.976,-3.595,63.19,0,109.7,13.29,-4.24,238.7
"2016-03-19 00:11:00",1470193,3.204,268.9,7.536,1.197,0.575,98.3175,-4.986,-3.594,63.08,0,109.7,13.29,-4.25,230.9
"2016-03-19 00:11:30",1470194,2.673,266,6.413,1.38,-0.978,98.3175,-4.986,-3.668,62.86,0,109.7,13.29,-4.25,228.0
"2016-03-19 00:12:00",1470195,1.966,260.8,9.62,1.302,-2.087,98.31184,-5,-3.784,62.66,0,109.7,13.29,-4.27,222.8
"2016-03-19 00:12:30",1470196,1.308,260.7,1.826,0.06,-3.611,98.30335,-5.022,-3.866,62.52,0,109.7,13.34,-4.29,222.7
"2016-03-19 00:13:00",1470197,1.746,263.9,4.738,0.839,-3.487,98.30392,-5.021,-3.856,62.48,0,109.7,13.29,-4.29,225.9
"2016-03-19 00:13:30",1470198,2.899,267.6,7.108,1.386,-0.604,98.30052,-5.029,-3.602,62.7,0,109.7,13.29,-4.29,229.6
"2016-03-19 00:14:00",1470199,3.174,271.4,6.972,1.305,0.094,98.29113,-5.053,-3.608,62.61,0,109.7,13.29,-4.32,233.4
"2016-03-19 00:14:30",1470200,3.636,271.3,5.607,1.167,0.651,98.28482,-5.069,-3.664,62.48,0,109.7,13.29,-4.34,233.3
"2016-03-19 00:15:00",1470201,2.387,262.9,5.785,1.116,-2.077,98.27831,-5.086,-3.769,62.31,0,109.7,13.29,-4.35,224.9
"2016-03-19 00:15:30",1470202,1.97,266.6,4.597,0.869,-2.773,98.2791,-5.084,-3.875,62.16,0,109.7,13.29,-4.35,228.6
"2016-03-19 00:16:00",1470203,2.712,275,6.799,1.277,-2.21,98.27139,-5.103,-3.824,62.12,0,109.7,13.3,-4.37,237.0
"2016-03-19 00:16:30",1470204,2.972,276.6,6.502,1.33,-1.808,98.25612,-5.142,-3.77,62.09,0,109.7,13.3,-4.41,238.6
"2016-03-19 00:17:00",1470205,3.467,275.9,7.283,1.296,0.087,98.25102,-5.155,-3.705,62.13,0,109.7,13.3,-4.42,237.9
"2016-03-19 00:17:30",1470206,3.161,270.8,7.149,1.355,-1.013,98.24078,-5.181,-3.812,62.04,0,109.7,13.3,-4.45,232.8
"2016-03-19 00:18:00",1470207,3.182,268.8,8.03,1.339,-0.461,98.22913,-5.211,-3.827,62.09,0,109.7,13.29,-4.48,230.8
"2016-03-19 00:18:30",1470208,2.384,263.6,4.658,1.087,-1.849,98.226,-5.219,-3.942,62.1,0,109.7,13.29,-4.49,225.6
"2016-03-19 00:19:00",1470209,2.668,262.1,6.095,1.228,-1.727,98.22231,-5.228,-3.936,62.25,0,109.7,13.29,-4.49,224.1
"2016-03-19 00:19:30",1470210,3.238,264.5,6.888,1.368,-0.204,98.21434,-5.249,-3.8,62.52,0,109.7,13.29,-4.52,226.5
"2016-03-19 00:20:00",1470211,3.71,265.2,6.59,1.279,0.109,98.20975,-5.26,-3.878,62.54,0,109.7,13.29,-4.53,227.2
"2016-03-19 00:20:30",1470212,3.324,262.3,7.569,1.334,-0.216,98.20094,-5.283,-3.956,62.57,0,109.7,13.29,-4.55,224.3
"2016-03-19 00:21:00",1470213,2.958,257.8,6.925,1.304,-1.05,98.20067,-5.284,-3.931,62.67,0,109.7,13.29,-4.55,219.8
"2016-03-19 00:21:30",1470214,3.203,262,6.663,1.293,-1.095,98.19755,-5.291,-3.984,62.71,0,109.7,13.29,-4.56,224.0
"2016-03-19 00:22:00",1470215,3.068,261,6.761,1.308,-1.143,98.18906,-5.313,-3.921,62.89,0,109.7,13.29,-4.58,223.0
"2016-03-19 00:22:30",1470216,3.649,270.2,7.409,1.279,-0.209,98.17718,-5.343,-3.939,63.03,0,109.7,13.29,-4.61,232.2
"2016-03-19 00:23:00",1470217,3.075,279.1,7.128,1.309,-0.857,98.16757,-5.368,-3.928,62.91,0,109.7,13.29,-4.63,241.1
"2016-03-19 00:23:30",1470218,2.644,274.6,8.45,1.286,-0.773,98.1636,-5.378,-3.989,62.56,0,109.7,13.29,-4.64,236.6
"2016-03-19 00:24:00",1470219,3.356,284.1,7.795,1.367,-0.225,98.14861,-5.416,-4.087,62.41,0,109.7,13.29,-4.68,246.1
"2016-03-19 00:24:30",1470220,2.67,283.6,7.757,1.154,-1.636,98.14234,-5.432,-4.108,62.56,0,109.7,13.3,-4.70,245.6
"2016-03-19 00:25:00",1470221,3.126,280.9,6.68,1.352,-1.015,98.14084,-5.436,-4.088,62.75,0,109.7,13.3,-4.70,242.9
"2016-03-19 00:25:30",1470222,3.221,284.1,7.217,1.365,-0.803,98.13374,-5.454,-4.16,62.61,0,109.6,13.3,-4.72,246.1
"2016-03-19 00:26:00",1470223,3.016,289.9,6.988,1.342,-0.692,98.13109,-5.461,-4.121,62.87,0,109.6,13.3,-4.73,251.9
"2016-03-19 00:26:30",1470224,2.843,290.9,6.755,1.314,-0.686,98.13216,-5.458,-4.122,63.15,0,109.6,13.3,-4.73,252.9
"2016-03-19 00:27:00",1470225,2.694,289.5,6.338,1.318,-0.986,98.1211,-5.486,-4.219,63.33,0,109.6,13.3,-4.75,251.5
"2016-03-19 00:27:30",1470226,2.67,294.5,7.647,1.302,-1.289,98.11799,-5.494,-4.142,63.61,0,109.6,13.3,-4.76,256.5
"2016-03-19 00:28:00",1470227,2.819,289.1,5.537,1.327,-1.384,98.11938,-5.49,-4.254,63.67,0,109.6,13.3,-4.76,251.1
"2016-03-19 00:28:30",1470228,3.142,291.2,7.491,1.381,-0.771,98.12243,-5.483,-4.178,63.86,0,109.6,13.3,-4.75,253.2
"2016-03-19 00:29:00",1470229,3.135,291.6,6.795,1.34,-0.122,98.12092,-5.487,-4.163,63.97,0,109.6,13.31,-4.75,253.6
"2016-03-19 00:29:30",1470230,2.244,287.1,5.617,1.182,-1.509,98.11076,-5.512,-4.257,64,0,109.6,13.31,-4.78,249.1
"2016-03-19 00:30:00",1470231,2.762,292.6,6.581,1.361,-0.283,98.10228,-5.534,-4.191,64.11,0,109.6,13.31,-4.80,254.6
"2016-03-19 00:30:30",1470232,2.148,284.8,6.162,1.281,-1.925,98.09543,-5.551,-4.292,64.17,0,109.6,13.31,-4.82,246.8
"2016-03-19 00:31:00",1470233,2.596,288.6,7.196,1.324,-1.083,98.09736,-5.546,-4.258,64.29,0,109.6,13.31,-4.81,250.6
"2016-03-19 00:31:30",1470234,2.734,287.4,7.169,1.388,-0.41,98.09791,-5.545,-4.244,64.38,0,109.6,13.31,-4.81,249.4
"2016-03-19 00:32:00",1470235,2.633,284.3,8.3,1.283,-0.824,98.08998,-5.565,-4.29,64.39,0,109.6,13.31,-4.83,246.3
"2016-03-19 00:32:30",1470236,2.553,282.1,7.241,1.326,-0.795,98.08036,-5.59,-4.297,64.47,0,109.6,13.31,-4.86,244.1
"2016-03-19 00:33:00",1470237,2.734,284,6.475,1.353,-0.42,98.06593,-5.627,-4.277,64.57,0,109.6,13.31,-4.89,246.0
"2016-03-19 00:33:30",1470238,2.404,280.1,7.352,1.179,-1.836,98.06451,-5.63,-4.314,64.64,0,109.6,13.31,-4.90,242.1
"2016-03-19 00:34:00",1470239,3.029,283.4,7.163,1.349,-0.751,98.06451,-5.63,-4.312,64.74,0,109.6,13.31,-4.90,245.4
"2016-03-19 00:34:30",1470240,3.048,284.9,6.93,1.347,-0.553,98.06445,-5.63,-4.26,64.89,0,109.6,13.32,-4.90,246.9
"2016-03-19 00:35:00",1470241,2.587,281,6.399,1.208,-1.347,98.06006,-5.641,-4.363,64.86,0,109.6,13.32,-4.91,243.0
"2016-03-19 00:35:30",1470242,3.143,282.6,6.878,1.329,-0.456,98.05178,-5.663,-4.363,64.93,0,109.6,13.31,-4.93,244.6
"2016-03-19 00:36:00",1470243,3.219,282.8,6.938,1.346,-0.322,98.04859,-5.671,-4.324,65.02,0,109.6,13.31,-4.94,244.8
"2016-03-19 00:36:30",1470244,2.964,281,7.277,1.329,-0.819,98.04794,-5.672,-4.306,65.1,0,109.6,13.31,-4.94,243.0
"2016-03-19 00:37:00",1470245,3.037,285.3,7.245,1.32,-0.975,98.03574,-5.703,-4.427,65.09,0,109.6,13.31,-4.97,247.3
"2016-03-19 00:37:30",1470246,3.466,284.6,7.118,1.336,0.132,98.02267,-5.737,-4.343,65.23,0,109.5,13.31,-5.00,246.6
"2016-03-19 00:38:00",1470247,2.751,276.3,6.564,1.203,-1.628,98.02237,-5.737,-4.432,65.25,0,109.5,13.31,-5.01,238.3
"2016-03-19 00:38:30",1470248,2.882,279.5,7.188,1.251,-0.79,98.00476,-5.782,-4.423,65.36,0,109.5,13.31,-5.05,241.5
"2016-03-19 00:39:00",1470249,2.444,278.5,6.52,1.284,-1.746,97.99537,-5.806,-4.535,65.44,0,109.5,13.32,-5.07,240.5
"2016-03-19 00:39:30",1470250,2.984,280.4,7.116,1.349,-0.508,97.99593,-5.805,-4.465,65.7,0,109.5,13.32,-5.07,242.4
"2016-03-19 00:40:00",1470251,2.86,280.2,6.456,1.411,-1.169,97.98206,-5.84,-4.478,65.88,0,109.5,13.32,-5.11,242.2
"2016-03-19 00:40:30",1470252,2.762,278,6.484,1.332,-0.867,97.96535,-5.883,-4.479,66.04,0,109.5,13.32,-5.15,240.0
"2016-03-19 00:41:00",1470253,3.09,277.6,7.455,1.337,-0.156,97.96195,-5.891,-4.489,66.18,0,109.5,13.33,-5.16,239.6
"2016-03-19 00:41:30",1470254,2.428,277.4,6.013,1.23,-1.512,97.95177,-5.917,-4.568,66.2,0,109.5,13.33,-5.19,239.4
"2016-03-19 00:42:00",1470255,2.993,282.2,7.8,1.251,-0.964,97.94214,-5.942,-4.524,66.35,0,109.5,13.33,-5.21,244.2
"2016-03-19 00:42:30",1470256,2.597,284.9,6.745,1.287,-1.829,97.93676,-5.955,-4.602,66.36,0,109.5,13.34,-5.22,246.9
"2016-03-19 00:43:00",1470257,3.198,290.7,6.545,1.33,-0.068,97.92854,-5.976,-4.535,66.56,0,109.5,13.34,-5.25,252.7
"2016-03-19 00:43:30",1470258,3.073,288.4,7.015,1.337,-0.367,97.93072,-5.971,-4.635,66.53,0,109.5,13.34,-5.24,250.4
"2016-03-19 00:44:00",1470259,2.067,286.4,5.64,1.15,-1.576,97.92329,-5.99,-4.639,66.63,0,109.5,13.34,-5.26,248.4
"2016-03-19 00:44:30",1470260,2.787,290.1,8.06,1.357,-0.737,97.92262,-5.991,-4.658,66.66,0,109.5,13.34,-5.26,252.1
"2016-03-19 00:45:00",1470261,2.135,287.2,6.749,1.168,-1.991,97.91749,-6.004,-4.67,66.7,0,109.5,13.34,-5.27,249.2
"2016-03-19 00:45:30",1470262,2.822,290.2,7.767,1.36,-0.934,97.91065,-6.022,-4.69,66.69,0,109.5,13.34,-5.29,252.2
"2016-03-19 00:46:00",1470263,2.908,284.6,7.135,1.365,-0.426,97.91232,-6.018,-4.7,66.77,0,109.5,13.34,-5.29,246.6
"2016-03-19 00:46:30",1470264,2.508,282.9,6.347,1.28,-0.565,97.91341,-6.015,-4.673,66.88,0,109.5,13.34,-5.28,244.9
"2016-03-19 00:47:00",1470265,2.381,278.4,6.41,1.321,-1.087,97.9063,-6.033,-4.764,66.89,0,109.5,13.35,-5.30,240.4
"2016-03-19 00:47:30",1470266,2.377,272.8,6.231,1.275,-1.37,97.90283,-6.042,-4.809,66.92,0,109.5,13.35,-5.31,234.8
"2016-03-19 00:48:00",1470267,2.369,274,7.175,1.339,-1.124,97.89799,-6.054,-4.709,67.12,0,109.5,13.35,-5.32,236.0
"2016-03-19 00:48:30",1470268,2.592,272.6,6.977,1.345,-1.091,97.89624,-6.058,-4.804,67.12,0,109.5,13.35,-5.33,234.6
"2016-03-19 00:49:00",1470269,2.737,269.3,6.871,1.351,-0.534,97.88998,-6.074,-4.677,67.29,0,109.5,13.35,-5.34,231.3
"2016-03-19 00:49:30",1470270,2.077,265.9,7.201,1.22,-1.105,97.89189,-6.069,-4.771,67.32,0,109.5,13.35,-5.34,227.9
"2016-03-19 00:50:00",1470271,2.29,269.5,6.83,1.246,-1,97.88339,-6.091,-4.735,67.41,0,109.5,13.35,-5.36,231.5
"2016-03-19 00:50:30",1470272,2.825,270,7.648,1.335,-0.724,97.87349,-6.116,-4.806,67.4,0,109.5,13.35,-5.39,232.0
"2016-03-19 00:51:00",1470273,2.09,267.1,5.797,1.235,-1.854,97.86074,-6.149,-4.801,67.48,0,109.5,13.35,-5.42,229.1
"2016-03-19 00:51:30",1470274,2.524,267.1,5.987,1.291,-1.031,97.85933,-6.152,-4.813,67.55,0,109.5,13.35,-5.42,229.1
"2016-03-19 00:52:00",1470275,2.516,268.4,6.947,1.304,-0.718,97.85904,-6.153,-4.788,67.63,0,109.5,13.35,-5.42,230.4
"2016-03-19 00:52:30",1470276,2.859,268.4,7.302,1.335,-0.343,97.85139,-6.173,-4.836,67.67,0,109.5,13.35,-5.44,230.4
"2016-03-19 00:53:00",1470277,2.623,265,7.367,1.371,-0.876,97.84204,-6.196,-4.9,67.72,0,109.5,13.35,-5.47,227.0
"2016-03-19 00:53:30",1470278,2.455,269.7,7.133,1.276,-1.248,97.83324,-6.219,-4.848,67.85,0,109.5,13.35,-5.49,231.7
"2016-03-19 00:54:00",1470279,2.424,267.1,6.892,1.324,-1.422,97.8295,-6.228,-4.92,67.87,0,109.5,13.35,-5.50,229.1
"2016-03-19 00:54:30",1470280,3.174,271.8,6.449,1.289,-0.122,97.83504,-6.214,-4.838,68.03,0,109.5,13.35,-5.48,233.8
"2016-03-19 00:55:00",1470281,2.674,270.8,6.709,1.336,-0.512,97.82587,-6.238,-4.877,68.08,0,109.5,13.35,-5.51,232.8
"2016-03-19 00:55:30",1470282,2.987,272.4,6.839,1.334,-0.204,97.82271,-6.246,-4.932,68.08,0,109.5,13.35,-5.52,234.4
"2016-03-19 00:56:00",1470283,2.242,271.8,6.933,1.225,-1.579,97.80993,-6.278,-4.994,68.12,0,109.5,13.35,-5.55,233.8
"2016-03-19 00:56:30",1470284,2.058,270.2,6.399,1.247,-1.646,97.81186,-6.273,-4.946,68.21,0,109.5,13.36,-5.54,232.2
"2016-03-19 00:57:00",1470285,2.465,273.9,6.757,1.32,-1.026,97.80785,-6.283,-4.983,68.25,0,109.5,13.36,-5.55,235.9
"2016-03-19 00:57:30",1470286,2.744,276.8,7.43,1.318,-0.81,97.80014,-6.303,-4.962,68.31,0,109.5,13.37,-5.57,238.8
"2016-03-19 00:58:00",1470287,2.768,278.5,6.302,1.312,-0.256,97.7905,-6.328,-4.982,68.38,0,109.5,13.37,-5.60,240.5
"2016-03-19 00:58:30",1470288,2.392,279,7.718,1.311,-0.809,97.78397,-6.344,-4.935,68.51,0,109.5,13.37,-5.61,241.0
"2016-03-19 00:59:00",1470289,1.978,285.8,8.92,1.203,-2.247,97.78617,-6.339,-5.057,68.49,0,109.5,13.37,-5.61,247.8
"2016-03-19 00:59:30",1470290,1.881,286.1,6.331,1.118,-2.318,97.77705,-6.362,-5.096,68.59,0,109.5,13.37,-5.63,248.1
"2016-03-19 01:00:00",1470291,2.59,292.6,7.357,1.381,-0.984,97.76371,-6.396,-5.018,68.8,0,109.4,13.38,-5.67,254.6
"2016-03-19 01:00:30",1470292,2.666,291.3,7.457,1.328,-0.94,97.75662,-6.414,-5.02,68.91,0,109.4,13.38,-5.68,253.3
"2016-03-19 01:01:00",1470293,2.151,287.8,6.858,1.263,-1.186,97.75662,-6.414,-5.064,69.04,0,109.4,13.38,-5.68,249.8
"2016-03-19 01:01:30",1470294,2.132,290,6.929,1.299,-1.388,97.74869,-6.434,-5.182,69.07,0,109.4,13.38,-5.70,252.0
"2016-03-19 01:02:00",1470295,2.478,289.2,7.078,1.322,-0.557,97.73736,-6.463,-5.101,69.25,0,109.4,13.38,-5.73,251.2
"2016-03-19 01:02:30",1470296,2.18,286.4,5.91,1.329,-1.339,97.73,-6.481,-5.175,69.28,0,109.4,13.38,-5.75,248.4
"2016-03-19 01:03:00",1470297,1.859,277.3,5.986,1.207,-1.705,97.72264,-6.5,-5.187,69.38,0,109.4,13.38,-5.77,239.3
"2016-03-19 01:03:30",1470298,2.874,281.9,6.851,1.315,0.073,97.72179,-6.502,-5.109,69.51,0,109.4,13.38,-5.77,243.9
"2016-03-19 01:04:00",1470299,2.013,276,6.721,1.217,-1.072,97.71157,-6.528,-5.153,69.58,0,109.4,13.38,-5.80,238.0
"2016-03-19 01:04:30",1470300,2.849,277.7,6.563,1.277,0.136,97.70869,-6.536,-5.199,69.64,0,109.4,13.38,-5.81,239.7
"2016-03-19 01:05:00",1470301,2.594,277.3,7.019,1.356,-0.697,97.70208,-6.553,-5.199,69.74,0,109.4,13.38,-5.82,239.3
"2016-03-19 01:05:30",1470302,2.206,277.7,7.44,1.248,-1.822,97.69805,-6.563,-5.286,69.76,0,109.4,13.38,-5.83,239.7
"2016-03-19 01:06:00",1470303,2.604,282,6.614,1.31,-1.081,97.70276,-6.551,-5.187,69.95,0,109.4,13.39,-5.82,244.0
"2016-03-19 01:06:30",1470304,2.945,281.3,7.315,1.309,-0.589,97.70774,-6.538,-5.235,70.06,0,109.4,13.39,-5.81,243.3
"2016-03-19 01:07:00",1470305,2.566,278,6.751,1.289,-0.567,97.7003,-6.557,-5.192,70.28,0,109.4,13.39,-5.83,240.0
"2016-03-19 01:07:30",1470306,2.556,279.4,7.143,1.263,-0.617,97.69154,-6.579,-5.253,70.35,0,109.4,13.39,-5.85,241.4
"2016-03-19 01:08:00",1470307,2.492,276.7,6.759,1.238,-1.036,97.67767,-6.615,-5.221,70.5,0,109.4,13.39,-5.89,238.7
"2016-03-19 01:08:30",1470308,2.912,279.8,6.54,1.34,-1.037,97.67679,-6.617,-5.343,70.51,0,109.4,13.39,-5.89,241.8
"2016-03-19 01:09:00",1470309,2.825,281.9,7.187,1.342,-0.934,97.68011,-6.608,-5.266,70.67,0,109.4,13.39,-5.88,243.9
"2016-03-19 01:09:30",1470310,2.707,282.2,7.024,1.33,-0.773,97.67947,-6.61,-5.287,70.75,0,109.4,13.39,-5.88,244.2
"2016-03-19 01:10:00",1470311,2.814,283.1,6.867,1.33,-0.688,97.66895,-6.637,-5.298,70.92,0,109.4,13.39,-5.91,245.1
"2016-03-19 01:10:30",1470312,3.07,280.9,7.13,1.314,-0.482,97.6554,-6.671,-5.298,71.11,0,109.4,13.38,-5.94,242.9
"2016-03-19 01:11:00",1470313,2.76,280.1,6.383,1.272,-1.757,97.65081,-6.683,-5.387,71.18,0,109.4,13.39,-5.95,242.1
"2016-03-19 01:11:30",1470314,2.889,282.8,7.096,1.338,-1.409,97.65192,-6.68,-5.396,71.32,0,109.4,13.39,-5.95,244.8
"2016-03-19 01:12:00",1470315,3.365,284.4,7.358,1.316,-0.091,97.65275,-6.678,-5.317,71.56,0,109.4,13.39,-5.95,246.4
"2016-03-19 01:12:30",1470316,3.099,283.4,7.187,1.325,0.11,97.64763,-6.691,-5.387,71.62,0,109.4,13.39,-5.96,245.4
"2016-03-19 01:13:00",1470317,2.284,280.4,5.909,1.139,-1.384,97.63799,-6.716,-5.44,71.62,0,109.4,13.39,-5.99,242.4
"2016-03-19 01:13:30",1470318,2.989,286.7,6.919,1.343,-0.692,97.63034,-6.735,-5.414,71.68,0,109.4,13.39,-6.01,248.7
"2016-03-19 01:14:00",1470319,3,287,6.769,1.352,-0.973,97.61986,-6.762,-5.418,71.72,0,109.4,13.39,-6.03,249.0
"2016-03-19 01:14:30",1470320,2.456,284.7,6.71,1.267,-1.325,97.61986,-6.762,-5.473,71.75,0,109.4,13.4,-6.03,246.7
"2016-03-19 01:15:00",1470321,3.09,290,6.925,1.306,0.036,97.61958,-6.763,-5.352,71.89,0,109.4,13.4,-6.03,252.0
"2016-03-19 01:15:30",1470322,2.297,287,6.725,1.221,-1.477,97.60994,-6.787,-5.513,71.76,0,109.3,13.4,-6.06,249.0
"2016-03-19 01:16:00",1470323,2.392,291.1,6.723,1.245,-1.118,97.60257,-6.806,-5.426,71.91,0,109.4,13.4,-6.08,253.1
"2016-03-19 01:16:30",1470324,2.98,295.6,8.06,1.339,-0.683,97.59888,-6.815,-5.474,71.91,0,109.4,13.4,-6.09,257.6
"2016-03-19 01:17:00",1470325,2.503,296.7,6.879,1.179,-1.513,97.58836,-6.842,-5.514,71.94,0,109.4,13.4,-6.11,258.7
"2016-03-19 01:17:30",1470326,2.839,296.1,7.051,1.333,-1.101,97.58889,-6.841,-5.475,71.98,0,109.4,13.41,-6.11,258.1
"2016-03-19 01:18:00",1470327,3.24,296.3,6.309,1.343,-0.78,97.59138,-6.834,-5.491,71.99,0,109.4,13.41,-6.11,258.3
"2016-03-19 01:18:30",1470328,2.964,295,6.518,1.343,-0.991,97.59802,-6.817,-5.497,71.99,0,109.4,13.41,-6.09,257.0
"2016-03-19 01:19:00",1470329,2.947,292.9,7.048,1.268,-1.495,97.59968,-6.813,-5.601,71.92,0,109.4,13.41,-6.09,254.9
"2016-03-19 01:19:30",1470330,3.051,288,6.589,1.32,-0.74,97.59788,-6.818,-5.535,72.03,0,109.4,13.41,-6.09,250.0
"2016-03-19 01:20:00",1470331,3.191,287.6,7.242,1.287,-0.849,97.59303,-6.83,-5.556,72.02,0,109.3,13.41,-6.10,249.6
"2016-03-19 01:20:30",1470332,3.451,289.6,6.835,1.351,0.171,97.59155,-6.834,-5.47,72.16,0,109.3,13.41,-6.11,251.6
"2016-03-19 01:21:00",1470333,3.088,288.4,7.091,1.348,-0.285,97.58839,-6.842,-5.558,72.18,0,109.3,13.41,-6.11,250.4
"2016-03-19 01:21:30",1470334,3.269,290.3,7.56,1.341,-0.343,97.58552,-6.849,-5.556,72.3,0,109.3,13.41,-6.12,252.3
"2016-03-19 01:22:00",1470335,2.539,288.2,5.589,1.123,-1.727,97.58012,-6.863,-5.575,72.31,0,109.3,13.41,-6.14,250.2
"2016-03-19 01:22:30",1470336,3.231,294.2,6.43,1.3,-0.95,97.57702,-6.871,-5.588,72.38,0,109.3,13.41,-6.14,256.2
"2016-03-19 01:23:00",1470337,3.317,297.4,7.504,1.351,-0.735,97.57701,-6.871,-5.553,72.43,0,109.3,13.41,-6.14,259.4
"2016-03-19 01:23:30",1470338,2.823,293,6.984,1.327,-1.056,97.58089,-6.861,-5.553,72.46,0,109.4,13.41,-6.13,255.0
"2016-03-19 01:24:00",1470339,3.23,292.7,6.961,1.294,-0.508,97.58116,-6.86,-5.604,72.4,0,109.3,13.41,-6.13,254.7
"2016-03-19 01:24:30",1470340,3.191,292.6,6.857,1.342,-0.241,97.58227,-6.857,-5.523,72.49,0,109.3,13.41,-6.13,254.6
"2016-03-19 01:25:00",1470341,3.135,294,7.055,1.351,-1.006,97.58448,-6.852,-5.59,72.46,0,109.3,13.41,-6.12,256.0
"2016-03-19 01:25:30",1470342,2.949,294.4,7.126,1.36,-1.032,97.58475,-6.851,-5.588,72.5,0,109.4,13.41,-6.12,256.4
"2016-03-19 01:26:00",1470343,3.085,298.7,7.048,1.358,-0.498,97.58504,-6.85,-5.539,72.6,0,109.3,13.41,-6.12,260.7
"2016-03-19 01:26:30",1470344,2.683,298.4,6.406,1.266,-1.352,97.58504,-6.85,-5.599,72.58,0,109.3,13.41,-6.12,260.4
"2016-03-19 01:27:00",1470345,2.853,299,7.255,1.312,-0.929,97.58504,-6.85,-5.587,72.63,0,109.3,13.41,-6.12,261.0
"2016-03-19 01:27:30",1470346,3.219,300.8,6.868,1.349,-0.561,97.58504,-6.85,-5.609,72.64,0,109.3,13.41,-6.12,262.8
"2016-03-19 01:28:00",1470347,3.046,300.4,6.503,1.336,-0.296,97.58475,-6.851,-5.512,72.81,0,109.3,13.41,-6.12,262.4
"2016-03-19 01:28:30",1470348,3.213,301.2,6.821,1.39,-0.356,97.58475,-6.851,-5.606,72.77,0,109.3,13.41,-6.12,263.2
"2016-03-19 01:29:00",1470349,3.492,302.2,6.227,1.26,0.586,97.58049,-6.862,-5.512,72.89,0,109.3,13.41,-6.13,264.2
"2016-03-19 01:29:30",1470350,2.624,299.8,6.336,1.235,-1.223,97.57455,-6.877,-5.613,72.77,0,109.3,13.41,-6.15,261.8
"2016-03-19 01:30:00",1470351,2.252,301.3,8.47,1.254,-1.029,97.57114,-6.886,-5.583,72.75,0,109.4,13.41,-6.16,263.3
"2016-03-19 01:30:30",1470352,2.534,293.8,6.551,1.328,-0.612,97.56831,-6.893,-5.565,72.63,0,109.3,13.41,-6.17,255.8
"2016-03-19 01:31:00",1470353,2.531,298.3,6.952,1.331,-1.184,97.56746,-6.895,-5.644,72.44,0,109.3,13.41,-6.17,260.3
"2016-03-19 01:31:30",1470354,2.7,302.9,7.133,1.369,-0.642,97.56773,-6.894,-5.607,72.31,0,109.3,13.42,-6.17,264.9
"2016-03-19 01:32:00",1470355,3.116,294.5,6.597,1.298,-0.109,97.56773,-6.894,-5.59,72.09,0,109.3,13.42,-6.17,256.5
"2016-03-19 01:32:30",1470356,3.403,299.1,5.811,1.343,-0.187,97.56857,-6.892,-5.582,71.93,0,109.3,13.42,-6.16,261.1
"2016-03-19 01:33:00",1470357,3.524,311,9.64,1.394,-0.911,97.57354,-6.88,-5.596,71.84,0,109.3,13.43,-6.15,273.0
"2016-03-19 01:33:30",1470358,4.272,319.3,6.471,1.308,0.082,97.57299,-6.881,-5.528,71.79,0,109.3,13.43,-6.15,281.3
"2016-03-19 01:34:00",1470359,3.115,315.1,7.22,1.401,-0.411,97.57549,-6.875,-5.556,71.61,0,109.3,13.43,-6.15,277.1
"2016-03-19 01:34:30",1470360,3.473,315.9,8.88,1.342,0.537,97.57909,-6.866,-5.556,71.45,0,109.4,13.43,-6.14,277.9
"2016-03-19 01:35:00",1470361,2.758,315,6.352,1.2,-0.95,97.57993,-6.863,-5.599,71.18,0,109.3,13.43,-6.14,277.0
"2016-03-19 01:35:30",1470362,3.646,316.6,6.367,1.397,-0.36,97.58327,-6.855,-5.683,70.91,0,109.3,13.43,-6.13,278.6
"2016-03-19 01:36:00",1470363,3.584,315.2,7.589,1.294,-0.457,97.58745,-6.844,-5.591,70.76,0,109.3,13.43,-6.12,277.2
"2016-03-19 01:36:30",1470364,3.614,316.8,7.993,1.371,0.411,97.59538,-6.824,-5.542,70.58,0,109.3,13.43,-6.10,278.8
"2016-03-19 01:37:00",1470365,2.655,306.6,8.72,1.429,-0.32,97.60186,-6.808,-5.598,70.36,0,109.3,13.43,-6.08,268.6
"2016-03-19 01:37:30",1470366,2.346,315.9,8.81,1.435,-0.112,97.60218,-6.807,-5.563,70.24,0,109.3,13.43,-6.08,277.9
"2016-03-19 01:38:00",1470367,2.589,295.9,6.02,1.309,-0.063,97.60246,-6.806,-5.614,70.06,0,109.3,13.43,-6.08,257.9
"2016-03-19 01:38:30",1470368,1.963,294.3,5.667,1.143,-1.416,97.60274,-6.805,-5.622,69.99,0,109.3,13.43,-6.08,256.3
"2016-03-19 01:39:00",1470369,3.039,304.5,6.231,1.355,-0.293,97.60218,-6.807,-5.547,70.07,0,109.3,13.43,-6.08,266.5
"2016-03-19 01:39:30",1470370,3.316,305.4,6.874,1.303,0.099,97.60274,-6.805,-5.559,69.97,0,109.3,13.43,-6.08,267.4
"2016-03-19 01:40:00",1470371,3.399,318.8,10.46,1.397,-0.252,97.60384,-6.803,-5.474,69.97,0,109.3,13.43,-6.07,280.8
"2016-03-19 01:40:30",1470372,3.158,322.3,8.86,1.268,-0.024,97.60412,-6.802,-5.551,69.84,0,109.3,13.43,-6.07,284.3
"2016-03-19 01:41:00",1470373,2.905,319.3,8.54,1.329,-0.012,97.60744,-6.793,-5.584,69.75,0,109.3,13.44,-6.07,281.3
"2016-03-19 01:41:30",1470374,2.248,312.8,6.471,1.199,-1.456,97.61132,-6.784,-5.598,69.68,0,109.3,13.44,-6.06,274.8
"2016-03-19 01:42:00",1470375,2.86,308.8,7.775,1.322,-0.777,97.61161,-6.783,-5.516,69.66,0,109.3,13.44,-6.05,270.8
"2016-03-19 01:42:30",1470376,2.691,314.7,8.04,1.291,-0.989,97.61217,-6.781,-5.535,69.6,0,109.3,13.44,-6.05,276.7
"2016-03-19 01:43:00",1470377,3.144,315.2,7.569,1.357,0.719,97.61358,-6.778,-5.455,69.61,0,109.3,13.43,-6.05,277.2
"2016-03-19 01:43:30",1470378,3.055,311.3,8.39,1.347,-0.124,97.61304,-6.779,-5.565,69.46,0,109.3,13.43,-6.05,273.3
"2016-03-19 01:44:00",1470379,2.862,308.3,6.749,1.288,-0.837,97.61672,-6.77,-5.561,69.49,0,109.3,13.43,-6.04,270.3